FENGYUN 1C DEB, 37047

Orbit data source: Space-Track

FENGYUN 1C DEB, 37047 is space debris in SSO originally from a launch on Mon, 10 May 1999 UTC launched from the Taiyaun Space Center, China (TSC). Fengyun 1C debris stems from the Chinese weather satellite Fengyun-1C, which was intentionally destroyed by a Chinese anti-satellite missile in 2007. This event dramatically increased the amount of space debris, with thousands of trackable fragments posing hazards to satellites and human spaceflight. The Fengyun 1C debris cloud has become a focal point in discussions about space sustainability and the need for international regulations to prevent the creation of new debris.

Loading next visibility...
Identifier
37047, 1999-025EEF
Orbit
SSO
Country
Flag of CNCN / PRC
Related business
Manufacturer
Unknown
Mission
Spacecraft
Bus & Motor
Unknown
Mass
Unknown
Launch date (UTC)
1999-05-10 (27 years ago)
Launch vehicle
Unknown
Launch site
Taiyaun Space Center, China (TSC)
Object type
Payload
Rocket body
Debris
Shape & HBR
Unknown shape, 0.1 m
Radar Cross Section
Small (<0.1 m²)

Expand to show TLE details & history
Last TLE update: 4 days ago

TLE from 4 days ago
0 FENGYUN 1C DEB
1 37047U 99025EEF 26203.95511831  .00001003  00000-0  75933-3 0  9996
2 37047  99.1240 255.7178 0229862 338.8183  20.3572 13.84601525651574
Epoch: 2026-07-22T22:55Z
TLE epoch observation values (Epoch: 2026-07-22T22:55:22.221Z)
Latitude
-0.00006°
Longitude
-28.82782°
Altitude
793.046 km
Speed
7.537 km/s
True Right ascension
17h 02m 52s
True Declination
0° 00' 00"
Sunlit
Object was in full shadow at epoch
Visualization orbit readout
Latitude
Unknown
Longitude
Unknown
Altitude
Unknown
Speed
Unknown
Apparent Right ascension
Unknown
Apparent Declination
Unknown
Sunlit
N/A
Visualization observer readout
Local Sidereal Time
21:39:34
Azimuth
Unknown
Elevation
Unknown
Doppler factor
Unknown
Orbital elements
Apogee altitude
1,113.162 km
Perigee altitude
776.508 km
Semi-major axis
7,322.972 km
Eccentricity
0.02299
Inclination
99.124°
RAAN
255.7178°
Arg. of periapsis
338.8183°
True anomaly
21.2988°
Mean anomaly
20.3572°
Eccentric anomaly
20.82543°
Mean motion
3.46348 °/min
Orbital period
103.94 mins
BSTAR
0.00075933
Loading maneuver chart data...
Computing Atmospheric mass density...
Loading historical data...
Loading historical data...
Loading historical data...
Loading historical data...
Loading historical data...
Loading historical data...
Loading historical data...

Documentation

Showing up to 5 results
|